Weather History for Lafayette, LA

Change the Weather History Date:

Wednesday, May 28, 2014

  Actual Average Record
Temperature  
Mean Temperature 76 °F 79 °F  
Max Temperature 83 °F 89 °F 96 °F (1953)
Min Temperature 69 °F 70 °F 51 °F (1901)
Cooling Degree Days 11 14  
Month to date cooling degree days 248 317  
Year to date cooling degree days 428 571  
Growing Degree Days 26 (Base 50)    
Moisture  
Dew Point 70 °F    
Average Humidity 79    
Maximum Humidity 100    
Minimum Humidity 58    
Precipitation  
Precipitation 6.87 in 0.17 in 6.87 in (2014)
Month to date precipitation 8.98 4.25  
Year to date precipitation 20.99 22.09  
Sea Level Pressure  
Sea Level Pressure 29.88 in    
Wind  
Wind Speed 9 mph (South)    
Max Wind Speed 31 mph    
Max Gust Speed 35 mph    
Visibility 5 miles    
Events Rain , Thunderstorm    
T = Trace of Precipitation, MM = Missing Value Source: NWS Daily Summary

Daily Weather History Graph

Daily Weather History Graph

Search for Another Location

Airport:

Trip Planner

Search our weather history database for the weather conditions in past years. The results will help you decide how hot, cold, wet, or windy it might be!

Date:

Astronomy

May. 28, 2014 Rise Set
Actual Time 6:07 AM CDT 8:02 PM CDT
Civil Twilight 5:41 AM CDT 8:29 PM CDT
Nautical Twilight 5:08 AM CDT 9:02 PM CDT
Astronomical Twilight 4:33 AM CDT 9:37 PM CDT
Moon 6:09 AM CDT 8:05 PM CDT
Length of Visible Light 14h 48m
Length of Day
13h 54m
Waning Crescent, 0% of the Moon is Illuminated
May 28
Waning Crescent
May 28
New
Jun 5
First Quarter
Jun 12
Full
Jun 19
Last Quarter

Hourly Weather History & Observations

Time (CDT) Temp. Heat Index Dew Point Humidity Pressure Visibility Wind Dir Wind Speed Gust Speed Precip Events Conditions
12:00 AM 77.0 °F - 73.9 °F 90% 29.92 in 10.0 mi South 6.9 mph - N/A Thunderstorm Overcast
12:37 AM 75.0 °F - 72.0 °F 90% 29.91 in 10.0 mi Calm Calm - N/A Thunderstorm Overcast
12:53 AM 75.9 °F - 73.0 °F 91% 29.90 in 10.0 mi SSW 3.5 mph - N/A Thunderstorm Thunderstorm
1:01 AM 75.9 °F - 73.0 °F 91% 29.91 in 10.0 mi Variable 6.9 mph - N/A Thunderstorm Thunderstorm
1:48 AM 69.8 °F - 68.0 °F 94% 29.91 in 2.0 mi NNW 21.9 mph 29.9 mph 0.69 in Rain , Thunderstorm Thunderstorms and Rain
1:53 AM 70.0 °F - 68.0 °F 93% 29.90 in 5.0 mi North 21.9 mph 29.9 mph 0.72 in Rain , Thunderstorm Thunderstorms and Rain
2:08 AM 71.1 °F - 69.1 °F 93% 29.91 in 10.0 mi Variable 6.9 mph - 0.04 in Rain , Thunderstorm Light Thunderstorms and Rain
2:39 AM 71.1 °F - 70.0 °F 96% 29.89 in 1.8 mi NNW 11.5 mph - 0.24 in Rain , Thunderstorm Heavy Thunderstorms and Rain
2:48 AM 71.6 °F - 69.8 °F 94% 29.90 in 2.0 mi Variable 3.5 mph - 0.38 in Rain , Thunderstorm Thunderstorms and Rain
2:53 AM 72.0 °F - 71.1 °F 97% 29.90 in 3.0 mi NW 8.1 mph - 0.42 in Rain , Thunderstorm Heavy Thunderstorms and Rain
3:17 AM 72.0 °F - 71.1 °F 97% 29.88 in 3.0 mi WNW 4.6 mph - 0.09 in Rain , Thunderstorm Thunderstorms and Rain
3:24 AM 71.1 °F - 70.0 °F 96% 29.87 in 2.5 mi WNW 4.6 mph - 0.11 in Rain , Thunderstorm Thunderstorms and Rain
3:31 AM 72.0 °F - 70.0 °F 93% 29.87 in 9.0 mi West 4.6 mph - 0.11 in Rain , Thunderstorm Light Rain
3:40 AM 72.0 °F - 71.1 °F 97% 29.86 in 2.0 mi WSW 5.8 mph - 0.20 in Rain Heavy Rain
3:53 AM 73.0 °F - 73.0 °F 100% 29.86 in 2.5 mi SSW 8.1 mph - 0.26 in Rain Light Rain
4:01 AM 73.0 °F - 73.0 °F 100% 29.86 in 10.0 mi SW 6.9 mph - 0.00 in Rain Light Rain
4:20 AM 73.9 °F - 73.9 °F 100% 29.85 in 9.0 mi South 6.9 mph - 0.00 in Rain , Thunderstorm Light Rain
4:53 AM 75.0 °F - 75.0 °F 100% 29.83 in 9.0 mi Calm Calm - 0.02 in Thunderstorm Thunderstorm
5:14 AM 75.0 °F - 75.0 °F 100% 29.86 in 10.0 mi South 4.6 mph - N/A Thunderstorm Mostly Cloudy
5:45 AM 73.0 °F - 70.0 °F 90% 29.84 in 6.0 mi South 4.6 mph 19.6 mph 0.02 in Rain Rain
5:53 AM 73.0 °F - 70.0 °F 90% 29.86 in 4.0 mi West 5.8 mph - 0.04 in Rain Rain
6:04 AM 72.0 °F - 70.0 °F 93% 29.87 in 3.0 mi Variable 4.6 mph - 0.10 in Rain , Thunderstorm Thunderstorms and Rain
6:07 AM 72.0 °F - 70.0 °F 93% 29.87 in 1.5 mi Variable 5.8 mph - 0.19 in Rain , Thunderstorm Heavy Thunderstorms and Rain
6:23 AM 71.1 °F - 70.0 °F 96% 29.88 in 0.8 mi South 11.5 mph 23.0 mph 0.67 in Rain , Thunderstorm Heavy Thunderstorms and Rain
6:47 AM 71.6 °F - 71.6 °F 100% 29.89 in 1.0 mi WSW 12.7 mph - 1.57 in Rain , Thunderstorm Heavy Thunderstorms and Rain
6:53 AM 70.0 °F - 70.0 °F 100% 29.89 in 1.2 mi NNW 19.6 mph 27.6 mph 1.74 in Rain , Thunderstorm Heavy Thunderstorms and Rain
7:01 AM 70.0 °F - 69.1 °F 97% 29.89 in 1.2 mi North 15.0 mph 27.6 mph 0.20 in Rain , Thunderstorm Heavy Thunderstorms and Rain
7:13 AM 69.1 °F - 69.1 °F 100% 29.88 in 0.8 mi North 11.5 mph - 0.66 in Rain , Thunderstorm Heavy Thunderstorms and Rain
7:34 AM 69.1 °F - 69.1 °F 100% 29.88 in 2.0 mi North 10.4 mph - 1.34 in Rain , Thunderstorm Heavy Thunderstorms and Rain
7:42 AM 69.1 °F - 69.1 °F 100% 29.88 in 3.0 mi NNE 6.9 mph - 1.40 in Rain , Thunderstorm Heavy Thunderstorms and Rain
7:49 AM 69.8 °F - 69.8 °F 100% 29.89 in 2.5 mi ENE 5.8 mph - 1.44 in Rain , Thunderstorm Heavy Thunderstorms and Rain
7:53 AM 70.0 °F - 69.1 °F 97% 29.89 in 3.0 mi NE 5.8 mph - 1.45 in Rain , Thunderstorm Heavy Thunderstorms and Rain
8:15 AM 70.0 °F - 68.0 °F 93% 29.89 in 5.0 mi East 9.2 mph - 0.08 in Rain , Thunderstorm Thunderstorms and Rain
8:18 AM 69.1 °F - 68.0 °F 96% 29.88 in 4.0 mi East 9.2 mph 17.3 mph 0.12 in Rain , Thunderstorm Heavy Rain
8:20 AM 69.1 °F - 68.0 °F 96% 29.89 in 4.0 mi East 8.1 mph 17.3 mph 0.13 in Rain , Thunderstorm Heavy Rain
8:30 AM 70.0 °F - 69.1 °F 97% 29.89 in 2.5 mi East 8.1 mph 16.1 mph 0.25 in Rain , Thunderstorm Heavy Rain
8:53 AM 70.0 °F - 69.1 °F 97% 29.89 in 7.0 mi ENE 8.1 mph - 0.30 in Rain , Thunderstorm Rain
9:05 AM 70.0 °F - 68.0 °F 93% 29.90 in 4.0 mi ENE 8.1 mph - 0.06 in Rain Heavy Rain
9:08 AM 70.0 °F - 68.0 °F 93% 29.90 in 4.0 mi NE 9.2 mph - 0.10 in Rain , Thunderstorm Heavy Rain
9:13 AM 70.0 °F - 68.0 °F 93% 29.92 in 3.0 mi North 6.9 mph - 0.13 in Rain , Thunderstorm Heavy Thunderstorms and Rain
9:19 AM 70.0 °F - 68.0 °F 93% 29.94 in 1.8 mi WNW 15.0 mph 23.0 mph 0.28 in Rain , Thunderstorm Heavy Thunderstorms and Rain
9:30 AM 70.0 °F - 68.0 °F 93% 29.93 in 0.8 mi ENE 5.8 mph - 0.77 in Rain , Thunderstorm Heavy Thunderstorms and Rain
9:35 AM 70.0 °F - 68.0 °F 93% 29.93 in 0.8 mi NE 12.7 mph - 0.97 in Rain , Thunderstorm Heavy Rain
9:43 AM 70.0 °F - 68.0 °F 93% 29.93 in 1.0 mi NNE 8.1 mph - 1.14 in Rain , Thunderstorm Heavy Thunderstorms and Rain
9:53 AM 69.1 °F - 68.0 °F 96% 29.94 in 0.8 mi Calm Calm - 1.39 in Rain , Thunderstorm Heavy Thunderstorms and Rain
9:55 AM 69.1 °F - 68.0 °F 96% 29.94 in 0.8 mi Calm Calm - 0.06 in Rain , Thunderstorm Heavy Thunderstorms and Rain
10:09 AM 69.1 °F - 68.0 °F 96% 29.92 in 1.2 mi East 4.6 mph - 0.37 in Rain , Thunderstorm Heavy Thunderstorms and Rain
10:19 AM 69.1 °F - 68.0 °F 96% 29.92 in 2.0 mi Variable 4.6 mph - 0.41 in Rain , Thunderstorm Thunderstorms and Rain
10:25 AM 69.1 °F - 69.1 °F 100% 29.92 in 2.5 mi ESE 3.5 mph - 0.44 in Rain Rain
10:44 AM 70.0 °F - 69.1 °F 97% 29.92 in 3.0 mi Variable 3.5 mph - 0.51 in Rain Rain
10:53 AM 70.0 °F - 69.1 °F 97% 29.92 in 6.0 mi SSE 4.6 mph - 0.52 in Rain , Thunderstorm Light Rain
11:08 AM 70.0 °F - 70.0 °F 100% 29.91 in 10.0 mi South 9.2 mph - 0.01 in Rain Light Rain
11:53 AM 75.0 °F - 72.0 °F 90% 29.89 in 10.0 mi South 10.4 mph - 0.01 in   Overcast
1:53 PM 82.0 °F 86.3 °F 71.1 °F 69% 29.87 in 10.0 mi SSW 15.0 mph - N/A   Scattered Clouds
2:53 PM 81.0 °F 84.1 °F 69.1 °F 67% 29.86 in 10.0 mi SW 19.6 mph 26.5 mph N/A   Mostly Cloudy
3:53 PM 82.0 °F 85.5 °F 69.1 °F 65% 29.84 in 10.0 mi SSW 17.3 mph 25.3 mph N/A   Overcast
5:53 PM 80.6 °F 82.7 °F 66.2 °F 61% 29.83 in 10.0 mi SW 13.8 mph - N/A   Partly Cloudy
6:53 PM 80.1 °F 82.3 °F 66.9 °F 64% 29.81 in 10.0 mi SW 11.5 mph - N/A   Clear
7:53 PM 78.1 °F - 68.0 °F 71% 29.82 in 10.0 mi SW 4.6 mph - N/A   Mostly Cloudy
8:53 PM 75.9 °F - 70.0 °F 82% 29.83 in 10.0 mi Calm Calm - N/A   Overcast
9:53 PM 75.0 °F - 70.0 °F 84% 29.84 in 10.0 mi Calm Calm - N/A   Mostly Cloudy
10:00 PM 75.0 °F - 70.0 °F 84% 29.84 in 10.0 mi South 3.5 mph - N/A   Mostly Cloudy
10:36 PM 75.0 °F - 70.0 °F 84% 29.84 in 10.0 mi Calm Calm - N/A   Overcast
10:53 PM 73.9 °F - 71.1 °F 91% 29.85 in 10.0 mi Calm Calm - N/A   Mostly Cloudy
11:24 PM 73.9 °F - 72.0 °F 93% 29.85 in 9.0 mi ESE 3.5 mph - 0.00 in   Overcast
11:41 PM 73.9 °F - 72.0 °F 93% 29.84 in 8.0 mi Calm Calm - 0.00 in   Overcast
11:53 PM 73.9 °F - 72.0 °F 93% 29.84 in 8.0 mi Calm Calm - 0.00 in   Overcast